This is the latest recevied weather packets stored in our database for station/object LROP. If no packets are shown the sender has not sent any weather packets the latest 1 day(s).
| Time | Temp. | Humidity | Pressure | Rain* | Wind** | Luminosity | Snow |
|---|---|---|---|---|---|---|---|
| 1778017683 | 13.89° C | 77% | 1014 hPa | - | 0.89 m/s, 30° | - | - |
| 1778016782 | 13.89° C | 77% | 1014 hPa | - | 0.89 m/s, 30° | - | - |
| 1778015882 | 13.89° C | 77% | 1014 hPa | - | 0 m/s | - | - |
| 1778014982 | 13.89° C | 77% | 1014 hPa | - | 0 m/s | - | - |
| 1778014084 | 15° C | 72% | 1014 hPa | - | 0 m/s | - | - |
| 1778013181 | 15° C | 72% | 1014 hPa | - | 0 m/s | - | - |
| 1778012313 | 16.11° C | 68% | 1014 hPa | - | 1.34 m/s, 60° | - | - |
| 1778011382 | 16.11° C | 68% | 1014 hPa | - | 1.34 m/s, 60° | - | - |
| 1778010482 | 16.11° C | 63% | 1014 hPa | - | 1.34 m/s, 80° | - | - |
| 1778009582 | 16.11° C | 63% | 1014 hPa | - | 1.34 m/s, 80° | - | - |
| 1778008682 | 16.11° C | 72% | 1014 hPa | - | 1.34 m/s, 150° | - | - |
| 1778007781 | 16.11° C | 72% | 1014 hPa | - | 1.34 m/s, 150° | - | - |
| 1778006882 | 17.22° C | 68% | 1014 hPa | - | 2.24 m/s, 150° | - | - |
| 1778005982 | 17.22° C | 68% | 1014 hPa | - | 2.24 m/s, 150° | - | - |
| 1778005082 | 17.22° C | 68% | 1013 hPa | - | 1.34 m/s, 140° | - | - |
| 1778004182 | 17.22° C | 68% | 1013 hPa | - | 1.34 m/s, 140° | - | - |
| 1778002382 | 17.78° C | 64% | 1013 hPa | - | 2.24 m/s, 150° | - | - |
| 1778001482 | 18.89° C | 64% | 1013 hPa | - | 1.34 m/s, 210° | - | - |
| 1778000582 | 18.89° C | 64% | 1013 hPa | - | 1.34 m/s, 210° | - | - |
| 1777999682 | 20° C | 60% | 1013 hPa | - | 2.24 m/s, 210° | - | - |
| 1777998782 | 20° C | 60% | 1013 hPa | - | 2.24 m/s, 210° | - | - |
| 1777997882 | 21.11° C | 53% | 1013 hPa | - | 1.34 m/s, 230° | - | - |
| 1777996982 | 21.11° C | 53% | 1013 hPa | - | 1.34 m/s, 230° | - | - |
| 1777992482 | 25° C | 32% | 1014 hPa | - | 2.24 m/s, 240° | - | - |
| 1777991582 | 25° C | 32% | 1014 hPa | - | 2.24 m/s, 240° | - | - |
* Rain since midnight (hover to see other rain measurements)
** Current wind speed in m/s (hover to see current wind gust speed)